Weather History for KMZZ - November, 2013

Change the Weather History Date:

Tuesday, November 5, 2013

  Actual Average (KMIE) Record (KMIE)
Temperature  
Mean Temperature 50 °F 47 °F  
Max Temperature 78 °F 57 °F - ()
Min Temperature 44 °F 38 °F - ()
Degree Days  
Heating Degree Days 15 18  
Month to date heating degree days 85  
Since 1 July heating degree days 549  
Cooling Degree Days 0 0  
Month to date cooling degree days 0  
Year to date cooling degree days 955  
Moisture  
Dew Point 41 °F    
Average Humidity 70    
Maximum Humidity 87    
Minimum Humidity 57    
Precipitation  
Precipitation 0.00 in 0.11 in - ()
Month to date precipitation 0.53  
Year to date precipitation 34.32  
Sea Level Pressure  
Sea Level Pressure 30.29 in    
Wind  
Wind Speed 8 mph (South)    
Max Wind Speed 14 mph    
Max Gust Speed 17 mph    
Visibility 9 miles    
Events Rain    
T = Trace of Precipitation, MM = Missing Value Source: NWS Daily Summary

Daily Weather History Graph

Daily Weather History Graph

Search for Another Location

Airport or City:

Trip Planner

Search our weather history database for the weather conditions in past years. The results will help you decide how hot, cold, wet, or windy it might be!

Date:

Astronomy

Nov. 05, 2013 Rise Set
Actual Time 7:17 AM EST 5:34 PM EST
Civil Twilight 6:48 AM EST 6:03 PM EST
Nautical Twilight 6:16 AM EST 6:35 PM EST
Astronomical Twilight 5:44 AM EST 7:07 PM EST
Moon 9:32 AM EST (11/5) 7:35 PM EST (11/5)
Length of Visible Light 11h 14m
Length of Day
10h 16m
Waxing Crescent, 6% of the Moon is Illuminated
Nov 5
Waxing Crescent
Nov 10
First Quarter
Nov 17
Full
Nov 25
Last Quarter
Dec 2
New

Hourly Weather History & Observations

Time (EST) Temp. Windchill Dew Point Humidity Pressure Visibility Wind Dir Wind Speed Gust Speed Precip Events Conditions
12:15 AM 45.5 °F 41.3 °F 38.3 °F 76% 30.31 in 10.0 mi South 8.1 mph - N/A   Clear
12:35 AM 45.7 °F 42.0 °F 38.5 °F 76% 30.31 in 10.0 mi South 6.9 mph - N/A   Clear
12:55 AM 45.9 °F 41.7 °F 38.3 °F 75% 30.31 in 10.0 mi South 8.1 mph - N/A   Clear
1:15 AM 45.7 °F 42.0 °F 38.5 °F 76% 30.31 in 7.0 mi South 6.9 mph - N/A   Clear
1:35 AM 45.5 °F 41.3 °F 38.3 °F 76% 30.31 in 10.0 mi South 8.1 mph - N/A   Clear
1:55 AM 45.5 °F 41.8 °F 38.3 °F 76% 30.31 in 10.0 mi South 6.9 mph - N/A   Clear
2:15 AM 45.3 °F 41.6 °F 38.3 °F 76% 30.31 in 10.0 mi South 6.9 mph - N/A   Clear
2:35 AM 45.3 °F 41.6 °F 38.3 °F 76% 30.31 in 10.0 mi South 6.9 mph - N/A   Clear
2:55 AM 44.8 °F 41.6 °F 37.9 °F 77% 30.31 in 10.0 mi South 5.8 mph - N/A   Clear
3:15 AM 44.8 °F 41.6 °F 37.9 °F 77% 30.32 in 10.0 mi South 5.8 mph - N/A   Clear
3:35 AM 44.8 °F 41.6 °F 38.1 °F 77% 30.31 in 10.0 mi South 5.8 mph - N/A   Clear
3:55 AM 45.0 °F 41.2 °F 38.1 °F 77% 30.32 in 10.0 mi South 6.9 mph - N/A   Clear
4:15 AM 45.3 °F 42.3 °F 38.5 °F 77% 30.32 in 10.0 mi South 5.8 mph - N/A   Mostly Cloudy
4:35 AM 46.0 °F 42.5 °F 38.7 °F 75% 30.32 in 10.0 mi South 6.9 mph - N/A   Overcast
4:55 AM 46.8 °F - 39.0 °F 74% 30.32 in 10.0 mi SSW 5.8 mph - N/A   Mostly Cloudy
5:15 AM 47.3 °F - 39.2 °F 73% 30.33 in 10.0 mi SSW 9.2 mph - N/A   Mostly Cloudy
5:35 AM 48.0 °F - 39.4 °F 72% 30.33 in 10.0 mi South 8.1 mph - N/A   Mostly Cloudy
5:55 AM 48.4 °F - 39.7 °F 72% 30.32 in 10.0 mi South 8.1 mph - N/A   Mostly Cloudy
6:15 AM 48.7 °F - 40.1 °F 72% 30.32 in 7.0 mi SSW 6.9 mph - N/A   Mostly Cloudy
6:35 AM 48.6 °F - 40.8 °F 75% 30.33 in 10.0 mi SSW 8.1 mph - N/A Rain Light Rain
6:55 AM 47.8 °F - 41.7 °F 79% 30.33 in 7.0 mi SSW 6.9 mph - N/A   Overcast
7:15 AM 47.5 °F - 42.3 °F 82% 30.34 in 10.0 mi SSW 8.1 mph - N/A   Overcast
7:35 AM 47.5 °F - 43.0 °F 84% 30.34 in 7.0 mi SSW 8.1 mph - N/A   Overcast
7:55 AM 47.8 °F - 43.3 °F 84% 30.34 in 10.0 mi SW 4.6 mph - N/A   Overcast
8:15 AM 48.6 °F - 44.2 °F 85% 30.35 in 7.0 mi SSW 9.2 mph - N/A   Mostly Cloudy
8:35 AM 48.9 °F - 44.6 °F 85% 30.36 in 10.0 mi SSW 9.2 mph - N/A   Overcast
8:55 AM 49.1 °F - 44.8 °F 85% 30.36 in 10.0 mi South 8.1 mph - N/A   Overcast
9:15 AM 49.1 °F - 44.8 °F 85% 30.37 in 7.0 mi South 8.1 mph - N/A   Overcast
9:35 AM 49.1 °F - 45.3 °F 87% 30.37 in 10.0 mi South 8.1 mph - N/A Rain Light Rain
9:55 AM 49.8 °F - 45.5 °F 85% 30.37 in 5.0 mi South 8.1 mph - N/A   Haze
10:15 AM 50.5 °F - 45.5 °F 83% 30.36 in 7.0 mi South 8.1 mph - N/A   Overcast
10:35 AM 51.1 °F - 45.3 °F 81% 30.36 in 7.0 mi South 8.1 mph - N/A Rain Light Rain
10:55 AM 51.3 °F - 45.3 °F 80% 30.36 in 7.0 mi South 9.2 mph - N/A Rain Light Rain
11:15 AM 52.0 °F - 45.3 °F 78% 30.36 in 7.0 mi South 9.2 mph - N/A Rain Light Rain
11:35 AM 53.1 °F - 45.3 °F 75% 30.37 in 7.0 mi South 10.4 mph - N/A   Overcast
11:55 AM 54.1 °F - 44.8 °F 71% 30.36 in 10.0 mi South 11.5 mph - N/A   Overcast
12:15 PM 55.8 °F - 44.1 °F 65% 30.36 in 7.0 mi SSW 12.7 mph - N/A   Mostly Cloudy
12:35 PM 56.1 °F - 43.3 °F 62% 30.34 in 5.0 mi South 10.4 mph - N/A   Haze
12:55 PM 55.4 °F - 42.4 °F 62% 30.34 in 10.0 mi SSW 11.5 mph - N/A   Overcast
1:15 PM 55.4 °F - 42.4 °F 62% 30.32 in 10.0 mi South 10.4 mph - N/A   Mostly Cloudy
1:35 PM 55.4 °F - 42.3 °F 61% 30.31 in 7.0 mi SSW 12.7 mph - N/A   Scattered Clouds
1:55 PM 55.8 °F - 42.4 °F 61% 30.31 in 10.0 mi South 10.4 mph - N/A   Clear
2:15 PM 56.3 °F - 42.6 °F 60% 30.30 in 10.0 mi SSW 9.2 mph - N/A   Clear
2:35 PM 56.1 °F - 42.1 °F 59% 30.28 in 7.0 mi South 9.2 mph - N/A   Mostly Cloudy
2:55 PM 55.9 °F - 42.1 °F 60% 30.30 in 7.0 mi SSW 9.2 mph - N/A   Overcast
3:15 PM 55.9 °F - 42.3 °F 60% 30.29 in 4.0 mi South 8.1 mph - N/A   Haze
3:35 PM 56.3 °F - 42.1 °F 59% 30.28 in 7.0 mi South 10.4 mph - N/A   Mostly Cloudy
3:55 PM 56.3 °F - 41.7 °F 58% 30.27 in 10.0 mi South 10.4 mph - N/A   Scattered Clouds
4:15 PM 55.8 °F - 41.9 °F 60% 30.27 in 10.0 mi SSE 9.2 mph - N/A   Clear
4:35 PM 55.0 °F - 41.7 °F 61% 30.27 in 10.0 mi South 8.1 mph - N/A   Scattered Clouds
4:55 PM 54.7 °F - 41.7 °F 62% 30.26 in 10.0 mi SSE 10.4 mph - N/A   Scattered Clouds
5:15 PM 54.1 °F - 41.4 °F 62% 30.25 in 10.0 mi SSE 10.4 mph - N/A   Clear
5:35 PM 53.2 °F - 41.4 °F 64% 30.25 in 10.0 mi SSE 8.1 mph - N/A   Clear
5:55 PM 52.7 °F - 41.5 °F 66% 30.24 in 10.0 mi SSE 8.1 mph - N/A   Mostly Cloudy
6:15 PM 52.7 °F - 41.4 °F 65% 30.24 in 10.0 mi SE 8.1 mph - N/A   Scattered Clouds
6:35 PM 52.2 °F - 41.4 °F 67% 30.24 in 7.0 mi SE 8.1 mph - N/A   Scattered Clouds
6:55 PM 52.0 °F - 41.2 °F 67% 30.24 in 10.0 mi SE 6.9 mph - N/A   Mostly Cloudy
7:15 PM 52.2 °F - 41.2 °F 66% 30.24 in 7.0 mi SE 8.1 mph - N/A   Mostly Cloudy
7:35 PM 52.0 °F - 41.2 °F 67% 30.24 in 7.0 mi SE 10.4 mph - N/A   Scattered Clouds
7:55 PM 52.5 °F - 41.5 °F 66% 30.23 in 10.0 mi SE 9.2 mph - N/A   Overcast
8:15 PM 52.9 °F - 41.5 °F 65% 30.22 in 7.0 mi SSE 11.5 mph - N/A   Overcast
8:35 PM 52.7 °F - 41.4 °F 65% 30.21 in 10.0 mi SSE 10.4 mph - N/A   Overcast
8:55 PM 52.5 °F - 41.2 °F 65% 30.21 in 10.0 mi SSE 10.4 mph 16.1 mph N/A   Scattered Clouds
9:15 PM 52.2 °F - 41.0 °F 66% 30.20 in 10.0 mi SSE 10.4 mph - N/A   Clear
9:35 PM 52.2 °F - 41.0 °F 66% 30.19 in 7.0 mi SSE 10.4 mph - N/A   Clear
9:55 PM 52.2 °F - 40.6 °F 65% 30.18 in 10.0 mi SSE 10.4 mph - N/A   Clear
10:15 PM 52.3 °F - 40.3 °F 64% 30.18 in 10.0 mi SSE 11.5 mph 16.1 mph N/A   Mostly Cloudy
10:35 PM 52.7 °F - 39.9 °F 62% 30.17 in 10.0 mi SSE 13.8 mph 17.3 mph N/A   Scattered Clouds
10:55 PM 52.9 °F - 39.6 °F 61% 30.17 in 10.0 mi SSE 10.4 mph - N/A   Mostly Cloudy
11:15 PM 53.2 °F - 39.4 °F 59% 30.16 in 7.0 mi South 10.4 mph - N/A   Overcast
11:35 PM 53.6 °F - 39.0 °F 58% 30.16 in 7.0 mi South 13.8 mph 17.3 mph N/A   Overcast
11:55 PM 54.0 °F - 38.8 °F 57% 30.14 in 10.0 mi South 12.7 mph - N/A   Overcast